FENGYUN 1C DEB, 32429

Orbit data source: Space-Track

FENGYUN 1C DEB, 32429 is space debris in SSO originally from a launch on Mon, 10 May 1999 UTC launched from the Taiyaun Space Center, China (TSC). Fengyun 1C debris stems from the Chinese weather satellite Fengyun-1C, which was intentionally destroyed by a Chinese anti-satellite missile in 2007. This event dramatically increased the amount of space debris, with thousands of trackable fragments posing hazards to satellites and human spaceflight. The Fengyun 1C debris cloud has become a focal point in discussions about space sustainability and the need for international regulations to prevent the creation of new debris.

Loading next visibility...
Identifier
32429, 1999-025DAR
Orbit
SSO
Country
Flag of CNCN / PRC
Related business
Manufacturer
Unknown
Mission
Spacecraft
Bus & Motor
Unknown
Mass
Unknown
Launch date (UTC)
1999-05-10 (27 years ago)
Launch vehicle
Unknown
Launch site
Taiyaun Space Center, China (TSC)
Object type
Payload
Rocket body
Debris
Shape & HBR
Unknown shape, 1.1 m
Radar Cross Section
Medium (>0.1 m² and <1 m²)

Expand to show TLE details & history
Last TLE update: 1 month ago

TLE from 1 month ago
0 FENGYUN 1C DEB
1 32429U 99025DAR 26225.33650277  .00005263  00000-0  10430-2 0  9991
2 32429  99.0816  81.3552 0027887 219.5339 140.3826 14.62510809990203
Epoch: 2026-08-13T08:04Z
TLE epoch observation values (Epoch: 2026-08-13T08:04:33.839Z)
Latitude
-0°
Longitude
-1.56334°
Altitude
703.237 km
Speed
7.496 km/s
True Right ascension
05h 25m 25s
True Declination
0° 00' 00"
Sunlit
Object was in daylight at epoch
Visualization orbit readout
Latitude
Unknown
Longitude
Unknown
Altitude
Unknown
Speed
Unknown
Apparent Right ascension
Unknown
Apparent Declination
Unknown
Sunlit
N/A
Visualization observer readout
Local Sidereal Time
03:42:18
Azimuth
Unknown
Elevation
Unknown
Doppler factor
Unknown
Orbital elements
Apogee altitude
701.888 km
Perigee altitude
662.51 km
Semi-major axis
7,060.336 km
Eccentricity
0.00279
Inclination
99.0816°
RAAN
81.3552°
Arg. of periapsis
219.5339°
True anomaly
140.58582°
Mean anomaly
140.3826°
Eccentric anomaly
140.48427°
Mean motion
3.65852 °/min
Orbital period
98.4 mins
BSTAR
0.001043
Loading maneuver chart data...
Computing Atmospheric mass density...

Documentation

Showing up to 5 results
|